Location: Ferchesar
(52.6477°N, 12.4298°E)
Time: 05:39:59
(UTC+01:00)

Transit 2A Rocket - Pass Details

Date: 14 December 2021
Orbit: 585 x 917 km, 66.7° (Epoch: 25 January)

Event Time Altitude Azimuth Distance (km) Brightness Sun altitude
Exits shadow 05:23:35 - 201° (SSW) 3,215 8.1 -24.4°
Reaches altitude 10° 05:25:34 10° 198° (SSW) 2,488 7.5 -24.1°
Maximum altitude 05:31:16 57° 121° (ESE) 1,047 5.9 -23.3°
Drops below altitude 10° 05:37:15 10° 44° (NE) 2,617 8.2 -22.4°
Sets 05:39:51 0° 41° (NE) 3,567 8.9 -22.0°
